Theta_e
346 345 346 344 345 346 347 347 346 347 348 348 346 348 349 348 350 350 349 350 349 350 350 351 349 350 350 349 349 349 350 350 346 348 347 348 349 344 342 345 345 345 346
345 345 344 347 346 346 347 347 346 346 346 348 347 348 349 347 349 349 350 351 350 350 349 350 350 348 349 348 349 348 349 349 349 349 349 350 347 343 346 347 347 345 345
346 345 345 346 347 346 348 348 349 349 348 349 349 349 350 349 349 350 350 349 350 349 350 349 349 349 350 349 349 350 349 349 349 350 348 345 344 348 348 348 346 343 349
347 346 346 346 347 347 349 349 350 349 349 348 349 348 349 349 349 350 350 350 351 350 349 350 350 350 350 350 349 349 350 349 349 348 347 345 348 348 349 349 345 344 349
349 348 347 347 347 350 350 349 349 349 349 349 349 349 349 350 350 350 350 351 351 351 351 350 349 349 350 350 350 350 350 350 349 349 346 346 347 348 349 347 345 339 347
350 349 347 347 349 350 349 350 351 351 349 350 350 349 349 349 350 350 350 350 351 350 349 348 349 349 348 350 350 349 349 350 349 348 347 347 346 349 345 346 343 341 344
349 349 348 349 349 349 349 350 349 347 346 346 348 348 347 347 348 347 345 346 346 346 344 347 348 347 347 345 346 347 348 349 348 347 348 347 347 346 340 343 340 340 343
346 346 345 346 346 346 345 345 345 345 345 345 346 347 347 347 345 345 345 344 345 344 340 339 347 347 345 345 346 346 346 345 344 343 341 334 334 336 338 343 338 337 342
344 344 343 343 344 343 342 343 343 342 344 344 343 342 341 340 340 340 343 344 344 345 346 347 345 346 340 341 343 344 336 333 332 333 336 337 338 339 338 335 330 330 336
342 343 343 342 343 343 342 340 340 342 343 342 339 337 333 334 338 339 340 342 342 342 341 339 339 335 331 334 338 341 330 331 331 327 325 324 325 324 325 325 324 326 327
342 341 341 341 342 343 342 342 343 342 341 339 336 332 332 332 334 338 341 342 341 332 326 323 323 324 327 325 324 325 331 328 325 325 322 321 321 321 321 321 320 321 319
340 340 337 341 341 341 340 339 339 338 337 331 325 322 324 326 330 335 338 337 328 324 319 321 323 323 324 325 324 328 330 325 323 322 321 318 315 314 315 316 315 314 310
340 338 339 339 338 338 337 337 335 333 330 324 321 319 317 318 323 330 327 326 324 323 321 323 326 323 324 324 326 324 323 323 322 319 315 311 309 307 306 308 314 308 303
335 332 331 332 334 334 334 332 330 327 323 320 319 319 319 320 320 322 325 325 326 325 326 322 321 322 323 323 322 322 320 317 316 313 310 307 305 304 303 301 301 305 300
325 326 325 324 327 325 325 322 323 323 324 322 320 320 314 309 309 311 313 313 315 319 318 318 318 317 314 315 313 312 311 311 310 307 306 304 301 300 299 299 299 299 300
324 323 322 323 323 323 324 321 323 324 324 325 323 319 314 308 304 303 303 306 314 317 318 317 313 311 310 310 309 307 306 305 304 303 302 300 299 298 298 298 298 298 299
325 321 318 318 319 319 317 318 318 317 318 320 323 323 322 320 321 316 303 306 312 313 313 312 311 310 308 307 306 305 303 302 301 300 298 297 297 297 297 297 297 297 298
318 319 319 318 315 313 312 311 308 308 310 310 316 318 317 316 315 316 317 313 311 313 311 309 307 306 305 304 303 302 301 300 299 297 296 296 296 296 296 296 296 297 297
311 315 310 310 313 317 314 312 308 306 304 302 301 300 299 300 302 303 304 307 310 309 309 307 306 305 304 302 301 300 299 298 296 295 294 294 294 294 294 294 295 295 296
313 309 309 309 309 315 317 314 311 308 307 305 303 302 301 305 307 307 305 307 308 307 307 306 305 304 302 301 299 298 297 296 294 294 293 293 293 293 293 293 294 295 295
310 309 307 307 307 307 308 310 312 312 310 308 306 303 302 306 307 307 307 307 307 306 305 304 303 301 300 299 298 297 296 295 293 293 293 293 293 292 292 292 293 293 294
312 311 311 311 308 306 306 306 306 306 307 308 306 303 303 306 306 306 306 306 305 305 304 303 301 300 299 298 297 296 295 294 293 293 293 293 292 292 291 291 292 292 293
314 313 311 310 309 307 305 305 305 305 306 307 308 304 303 305 305 305 305 305 304 303 302 301 299 298 297 296 296 295 294 293 294 294 294 293 292 291 291 291 292 293 293
318 314 310 308 308 308 308 306 304 305 305 305 307 308 305 305 306 305 305 304 303 302 301 300 299 298 297 296 295 294 294 294 294 294 294 293 292 292 292 292 293 293 293
318 316 314 312 310 309 308 308 306 304 304 304 305 305 307 305 305 304 304 304 303 302 300 300 299 298 297 296 295 294 294 294 294 294 294 294 294 293 293 294 294 295 295
317 316 315 314 313 313 311 310 309 308 306 304 305 305 305 305 303 304 304 303 303 302 300 299 298 298 297 296 295 294 294 294 294 294 295 295 294 294 295 295 296 295 294
Wind_Speed
29 26 23 22 23 21 20 17 15 16 16 14 13 14 18 18 16 14 14 13 12 10 9 10 8 7 7 7 6 5 5 5 4 6 9 8 8 13 13 13 13 12 11
29 27 25 21 21 21 18 17 17 18 16 15 16 18 19 19 17 16 15 15 14 12 13 11 11 10 11 10 9 8 7 7 7 8 10 8 9 9 11 12 13 13 11
30 29 27 23 21 21 19 16 16 18 18 15 14 13 17 19 19 17 16 15 14 12 12 13 11 11 13 12 12 11 10 8 7 6 7 9 10 8 12 11 14 15 11
31 29 29 27 25 22 20 17 14 15 17 17 15 15 16 19 17 17 17 16 16 14 13 12 13 12 14 13 12 12 11 9 8 9 10 8 6 9 10 12 15 14 12
32 30 30 27 25 22 20 18 16 15 17 15 15 15 14 15 17 17 17 17 17 16 16 15 16 15 13 12 12 11 11 11 10 9 9 7 6 6 7 8 10 11 7
33 32 28 25 24 23 20 19 17 16 16 16 15 13 13 14 17 19 18 17 16 16 16 15 16 17 14 10 10 10 12 13 12 10 9 7 5 3 5 6 7 6 3
28 28 25 22 21 20 17 16 14 12 15 18 16 13 12 12 14 14 15 12 9 9 8 11 14 16 15 13 13 11 11 12 13 12 8 6 3 3 3 2 4 5 3
19 18 12 7 12 14 14 13 10 8 9 11 13 12 10 7 6 8 11 13 12 13 13 13 14 16 12 13 11 8 6 4 4 5 5 5 5 5 4 2 1 2 5
13 10 9 10 10 13 13 13 9 9 9 11 10 9 9 8 6 8 10 12 14 16 15 15 17 15 10 8 7 7 3 2 2 2 4 5 6 5 5 4 3 4 3
3 6 8 12 12 12 12 11 11 12 12 11 9 8 6 6 8 11 12 13 13 13 9 6 5 5 3 2 4 6 5 9 12 13 13 12 11 10 8 8 7 5 3
10 12 10 8 12 13 11 10 13 12 13 11 9 6 5 5 4 5 5 11 12 10 9 9 7 6 5 5 4 5 8 14 14 13 12 11 10 11 11 10 9 6 5
9 9 7 7 10 10 9 11 10 10 12 12 10 8 4 1 1 3 3 6 11 13 12 10 10 7 6 3 1 4 11 13 12 10 9 9 10 10 9 7 7 8 9
7 9 11 12 13 10 10 12 12 9 11 12 11 9 8 6 6 7 6 8 11 12 12 12 10 9 5 4 6 9 10 10 9 7 8 9 9 8 6 5 3 5 8
13 11 11 11 13 11 11 10 10 10 8 9 7 6 5 5 4 6 7 6 5 6 8 10 10 10 9 9 10 10 9 6 7 8 9 8 6 6 7 8 7 4 5
15 13 11 11 12 12 11 9 8 6 4 5 4 3 4 4 4 3 3 4 4 6 11 11 11 15 16 15 12 12 11 10 8 8 8 8 7 8 11 10 11 11 11
14 12 11 11 12 11 11 11 9 6 4 2 5 5 5 5 5 5 2 4 6 10 15 17 13 11 14 13 12 11 10 9 9 9 8 8 9 9 10 10 11 11 9
9 8 9 10 9 9 8 8 8 6 5 8 6 7 7 5 1 3 3 2 8 13 13 15 16 15 13 12 11 10 12 10 9 8 9 8 8 8 8 9 10 9 9
7 7 5 5 5 5 4 3 3 3 3 2 3 4 5 6 6 8 7 6 9 11 12 13 13 11 10 12 13 13 12 12 10 9 9 8 7 7 6 7 8 7 8
5 4 3 1 2 4 3 2 2 3 2 3 3 2 2 3 5 6 8 10 15 17 19 18 14 11 10 9 10 12 11 10 9 9 8 6 6 5 6 7 6 8 8
2 2 1 2 2 2 4 4 3 3 3 3 2 2 4 4 2 7 11 11 15 18 18 15 14 12 11 12 11 11 10 9 8 6 6 5 6 6 5 6 6 6 8
1 1 1 0 0 1 2 4 6 8 9 9 7 6 6 4 3 7 10 12 15 14 14 12 12 13 14 14 12 11 10 8 5 6 4 4 5 6 5 6 5 6 7
6 6 6 6 6 5 5 6 7 8 10 11 10 10 11 10 8 10 11 12 12 10 10 10 12 12 13 12 12 12 10 8 7 6 5 4 4 5 5 5 5 6 5
8 8 8 8 8 8 6 8 8 8 8 10 11 13 15 14 13 14 14 13 12 11 10 11 11 12 11 10 9 7 6 6 5 4 4 5 5 6 6 7 7 4 3
10 10 10 9 9 9 10 9 9 10 10 10 10 14 17 17 16 15 16 15 12 10 10 11 10 10 11 11 9 9 6 5 5 6 7 8 7 9 10 8 4 2 3
12 12 13 13 13 13 14 13 13 12 13 15 15 15 19 20 19 19 20 18 14 12 12 11 10 10 9 9 9 8 5 6 6 6 5 5 6 7 6 4 3 3 4
9 13 16 16 17 17 17 17 16 15 17 17 18 17 16 20 20 21 24 22 17 15 14 13 12 11 10 9 9 8 7 7 6 5 4 4 6 6 5 3 2 3 4
Wind_Direction
217 216 214 215 216 214 222 227 230 224 220 233 240 251 234 229 234 244 249 242 245 244 245 245 252 253 256 270 276 284 285 275 261 303 320 317 330 348 358 4 2 5 11
218 217 217 218 219 221 227 236 227 229 231 239 244 252 232 230 233 242 237 236 237 251 256 255 250 254 251 255 258 264 264 266 258 289 311 311 318 334 342 347 2 5 5
217 217 217 220 226 226 230 232 233 234 229 240 237 243 228 229 231 239 240 235 240 254 259 256 253 249 249 251 248 249 253 260 267 267 289 297 313 326 346 356 7 19 51
215 216 215 213 220 222 229 235 237 232 233 239 246 250 238 236 241 239 237 243 249 253 254 259 258 267 256 251 254 256 246 248 249 250 282 298 308 328 349 5 13 26 36
215 213 216 215 215 221 225 236 240 239 237 233 235 240 243 244 239 239 240 242 248 250 255 259 260 262 270 254 251 252 252 248 252 260 277 282 302 330 357 4 12 15 52
213 214 212 211 215 222 225 235 238 236 233 233 233 227 235 237 239 242 238 245 253 256 262 264 258 255 256 254 252 261 264 258 262 266 270 269 296 326 353 4 14 21 14
205 206 207 204 212 215 212 211 227 236 238 241 228 217 226 235 238 239 245 246 251 257 273 280 262 256 237 253 266 269 269 257 261 266 263 266 276 233 305 335 14 33 86
172 158 162 178 210 211 216 213 218 252 261 241 223 211 214 230 281 269 254 247 255 266 262 263 266 265 244 243 248 250 236 251 270 264 265 267 264 260 261 235 328 19 149
164 163 222 220 245 220 209 212 220 243 251 242 225 216 214 222 235 281 285 262 251 247 246 237 245 246 243 245 236 227 204 110 103 161 141 123 119 132 156 151 64 45 65
316 156 186 238 217 200 197 207 223 233 220 215 226 240 271 282 286 265 265 244 232 230 209 199 211 215 199 226 218 200 155 144 142 129 118 113 101 91 80 65 56 71 65
163 135 129 153 180 185 195 207 209 205 207 208 209 199 220 256 269 259 251 237 197 170 149 136 132 125 120 125 142 165 159 154 146 135 117 100 85 73 65 58 63 71 82
161 162 129 155 159 152 145 151 160 172 176 176 172 163 161 142 205 189 178 160 155 156 130 115 116 118 110 110 144 151 158 158 152 139 118 90 74 70 69 74 68 64 66
160 145 154 158 148 147 147 144 147 159 166 166 168 153 142 134 107 106 128 157 161 163 154 152 150 125 98 141 143 143 145 152 146 120 97 85 79 77 86 86 113 79 63
143 145 137 131 120 124 130 135 143 149 168 174 165 150 162 157 148 146 154 150 163 162 163 135 129 127 143 149 153 145 139 139 129 115 104 93 86 83 78 73 71 163 63
103 98 100 111 113 112 107 109 111 109 167 169 155 162 140 122 122 133 142 140 124 149 156 159 163 155 148 142 138 127 126 129 120 114 107 99 78 67 67 63 63 59 63
108 108 109 102 98 96 100 102 100 90 82 50 186 153 101 103 67 49 355 214 184 182 174 172 172 166 142 136 131 122 116 112 113 118 112 102 94 86 78 67 64 62 55
111 115 114 110 113 117 126 128 127 117 90 83 108 179 183 157 52 332 343 321 175 186 190 179 169 167 155 149 145 140 127 120 121 111 105 102 95 84 71 62 54 46 48
117 122 130 121 127 129 119 109 96 104 137 151 171 213 212 230 249 245 238 223 195 197 199 177 168 157 149 145 142 139 132 131 124 112 103 91 81 76 69 60 56 58 52
78 112 113 104 194 199 176 134 110 106 90 99 128 184 204 210 216 214 212 207 201 181 170 167 162 157 157 157 148 144 138 133 125 116 106 96 87 75 63 50 60 66 61
129 94 26 21 45 174 215 212 210 217 226 226 199 188 182 194 221 183 198 205 186 168 162 161 164 168 167 168 166 147 143 142 133 121 110 100 91 74 65 66 63 54 43
202 204 186 153 116 221 227 231 236 236 236 236 225 205 191 190 183 176 182 179 173 169 169 176 174 175 172 167 167 166 162 150 140 130 111 105 102 88 81 74 68 54 41
238 251 269 265 259 256 259 254 252 250 253 248 225 200 189 187 182 173 170 168 171 180 189 194 187 180 176 173 174 179 171 164 158 140 131 123 102 95 98 91 84 78 45
259 265 260 251 246 248 267 264 256 257 263 259 232 206 197 196 193 190 186 183 186 191 191 187 181 176 172 172 177 183 182 168 150 131 112 94 98 99 101 97 89 73 35
267 271 269 264 257 256 264 262 258 255 261 263 252 231 218 214 213 209 198 192 189 188 189 185 184 183 178 178 183 186 176 165 150 138 124 108 97 96 97 84 69 36 343
261 257 260 264 263 264 266 266 256 258 256 252 246 239 228 220 217 212 201 196 192 193 192 189 191 187 184 189 185 176 171 158 151 140 124 114 107 106 98 97 68 31 14
280 278 275 270 265 264 260 263 265 263 263 262 252 246 238 220 217 211 203 199 196 196 196 195 194 192 192 187 182 183 177 171 163 143 119 116 118 117 112 102 75 50 19